This demonstration page uses our WeatherBlox Daily Observations layout. Learn more.

30.53353, -92.08151

Hourly Observations for November 24, 2020

Temp ( °F °C ) Dew Point ( °F °C ) Humidity (%) Winds ( mph kmh ) Pressure ( in mb ) Visibility ( mi km ) Precip ( " mm )
12:15 am 00:15 Clear 51 10.5 45 7.1 80 80 E 12 19 30.16 1021 10 16.0934 0 0
12:35 am 00:35 Clear 51 10.4 45 7 80 80 E 12 19 30.16 1021 10 16.0934 0 0
12:55 am 00:55 Clear 51 10.3 45 7 80 80 E 12 19 30.16 1021 10 16.0934 0 0
1:15 am 01:15 Clear 50 10.1 45 7 81 81 E 9 15 30.15 1021 10 16.0934 0 0
1:35 am 01:35 Clear 50 10 44 6.7 80 80 E 10 17 30.15 1021 10 16.0934 0 0
1:55 am 01:55 Clear 50 10 44 6.7 80 80 E 10 17 30.15 1021 10 16.0934 0 0
2:15 am 02:15 Clear 49 9.5 44 6.6 82 82 E 8 13 30.15 1021 10 16.0934 0 0
2:35 am 02:35 Clear 49 9.2 44 6.5 83 83 E 6 9 30.14 1021 10 16.0934 0 0
2:55 am 02:55 Clear 48 9 44 6.4 84 84 E 6 9 30.14 1021 10 16.0934 0 0
3:15 am 03:15 Clear 48 9 43 6.2 83 83 E 5 7 30.14 1021 10 16.0934 0 0
3:35 am 03:35 Clear 48 9 43 6.2 83 83 E 6 9 30.13 1020 10 16.0934 0 0
3:55 am 03:55 Clear 48 9 43 6.1 82 82 E 5 7 30.13 1020 10 16.0934 0 0
4:15 am 04:15 Clear 48 8.8 43 6.1 83 83 E 5 7 30.13 1020 10 16.0934 0 0
4:35 am 04:35 Clear 47 8.6 43 6.1 84 84 E 5 7 30.13 1020 10 16.0934 0 0
4:55 am 04:55 Clear 47 8.6 43 6.2 85 85 E 5 7 30.13 1020 10 16.0934 0 0
5:15 am 05:15 Clear 48 8.9 44 6.5 85 85 E 6 9 30.12 1020 10 16.0934 0 0
5:35 am 05:35 Clear 48 9 44 6.5 85 85 E 5 7 30.13 1020 10 16.0934 0 0
5:55 am 05:55 Clear 48 8.7 43 6.3 85 85 E 3 6 30.14 1021 10 16.0934 0 0
6:15 am 06:15 Partly Cloudy 47 8.4 43 6.2 86 86 E 3 6 30.15 1021 10 16.0934 0 0
6:35 am 06:35 Mostly Cloudy 47 8.6 44 6.9 89 89 Calm 30.17 1022 10 16.0934 0 0
6:55 am 06:55 Cloudy 49 9.6 46 7.7 88 88 Calm 30.18 1022 10 16.0934 0 0
7:15 am 07:15 Cloudy 50 10 46 7.8 86 86 E 7 11 30.17 1022 10 16.0934 0 0
7:35 am 07:35 Cloudy 51 10.4 46 7.5 82 82 E 6 9 30.17 1022 10 16.0934 0 0
7:55 am 07:55 Partly Cloudy 52 11 46 7.7 80 80 E 7 11 30.15 1021 10 16.0934 0 0
8:15 am 08:15 Partly Cloudy 55 12.5 47 8.2 75 75 ESE 9 15 30.15 1021 10 16.0934 0 0
8:35 am 08:35 Mostly Cloudy 56 13.2 48 8.7 74 74 ESE 13 20 30.15 1021 10 16.0934 0 0
8:55 am 08:55 Mostly Cloudy 57 14.1 48 9.1 72 72 ESE 12 19 30.15 1021 10 16.0934 0 0
9:15 am 09:15 Cloudy 59 14.8 49 9.7 72 72 ESE 12 19 30.15 1021 10 16.0934 0 0
9:35 am 09:35 Mostly Cloudy 60 15.4 50 10.1 71 71 ESE 15 24 30.14 1021 10 16.0934 0 0
9:55 am 09:55 Mostly Cloudy 61 16.2 51 10.3 68 68 ESE 15 24 30.14 1021 10 16.0934 0 0
10:15 am 10:15 Partly Cloudy 64 17.5 52 11 66 66 ESE 15 24 30.12 1020 10 16.0934 0 0
10:35 am 10:35 Sunny 66 18.7 53 11.9 65 65 ESE 10 17 30.11 1020 10 16.0934 0 0
10:55 am 10:55 Sunny 68 20.1 55 12.8 63 63 ESE 7 11 30.11 1020 10 16.0934 0 0
11:15 am 11:15 Sunny 69 20.8 56 13.5 63 63 ESE 12 19 30.09 1019 10 16.0934 0 0
11:35 am 11:35 Sunny 71 21.6 57 13.9 62 62 SSE 15 24 30.08 1019 10 16.0934 0 0
12:00 pm 12:00 Sunny 73 22.5 58 14.6 61 61 SSE 13 20 30.06 1018 10 16.0934 0 0
12:15 pm 12:15 Sunny 74 23.2 59 15.1 60 60 SE 13 20 30.05 1018 10 16.0934 0 0
12:35 pm 12:35 Mostly Cloudy 74 23.1 59 15.1 61 61 SSE 16 26 30.04 1017 10 16.0934 0 0
12:55 pm 12:55 Cloudy 73 22.8 60 15.5 64 64 SSE 7 11 30.03 1017 10 16.0934 0 0
1:15 pm 13:15 Cloudy 75 23.7 61 16.1 63 63 SSE 10 17 30.02 1017 10 16.0934 0 0
1:35 pm 13:35 Cloudy 73 23 61 16.1 65 65 SE 10 17 30.01 1016 10 16.0934 0 0
1:55 pm 13:55 Cloudy 74 23.5 61 16.2 64 64 ESE 12 19 30.01 1016 10 16.0934 0 0
2:15 pm 14:15 Cloudy 74 23.2 61 16.2 65 65 ESE 14 22 30.01 1016 10 16.0934 0 0
2:35 pm 14:35 Cloudy 74 23.1 61 16.2 65 65 ESE 10 17 30 1016 10 16.0934 0 0
2:55 pm 14:55 Cloudy 73 23 61 16.3 66 66 SE 8 13 30 1016 10 16.0934 0 0
3:15 pm 15:15 Cloudy 73 22.8 62 16.6 68 68 SE 5 7 30 1016 10 16.0934 0 0
3:35 pm 15:35 Cloudy 73 22.7 62 16.7 69 69 SSE 7 11 29.99 1015 10 16.0934 0 0
3:55 pm 15:55 Cloudy 73 23 63 17.1 70 70 S 9 15 29.99 1015 10 16.0934 0 0
4:15 pm 16:15 Cloudy 73 22.9 63 17.1 70 70 S 9 15 29.98 1015 10 16.0934 0 0
4:35 pm 16:35 Cloudy 73 22.8 63 17 70 70 SSE 14 22 29.98 1015 10 16.0934 0 0
4:55 pm 16:55 Cloudy 72 22.3 63 17.2 73 73 S 13 20 29.99 1016 10 16.0934 0 0
5:15 pm 17:15 Cloudy 71 21.6 64 17.5 78 78 S 14 22 29.99 1016 10 16.0934 0 0
5:35 pm 17:35 Cloudy 70 21.3 64 17.5 79 79 SE 12 19 29.98 1015 10 16.0934 0 0
5:55 pm 17:55 Mostly Cloudy 69 20.5 64 17.5 83 83 ESE 14 22 29.98 1015 10 16.0934 0 0
6:15 pm 18:15 Partly Cloudy 69 20.3 63 17.4 84 84 SE 10 17 29.98 1015 10 16.0934 0 0
6:35 pm 18:35 Cloudy 69 20.7 63 17.3 81 81 SSE 13 20 30 1016 10 16.0934 0 0
6:55 pm 18:55 Cloudy 69 20.6 63 17.2 81 81 SE 14 22 30 1016 10 16.0934 0 0
7:15 pm 19:15 Cloudy 69 20.7 63 17.1 80 80 SSE 13 20 30 1016 10 16.0934 0 0
7:35 pm 19:35 Cloudy 69 20.6 63 17.2 81 81 SSE 10 17 30.01 1016 10 16.0934 0 0
7:55 pm 19:55 Cloudy 69 20.5 63 17.2 81 81 SSE 12 19 30.01 1016 10 16.0934 0 0
8:15 pm 20:15 Cloudy with Light Rain 68 20 64 17.5 86 86 S 12 19 30.02 1017 7 11.26538 0 0
8:35 pm 20:35 Cloudy 68 19.8 64 17.7 88 88 SE 12 19 30.02 1017 10 16.0934 0.01 0.254
8:55 pm 20:55 Mostly Cloudy 68 19.9 64 17.5 86 86 SSE 18 30 30.01 1016 10 16.0934 0.01 0.254
9:15 pm 21:15 Mostly Cloudy 68 20.2 63 17.1 82 82 SE 20 31 29.99 1016 10 16.0934 0 0
9:35 pm 21:35 Partly Cloudy 68 20.2 63 17.1 82 82 SSE 21 33 29.99 1016 10 16.0934 0 0
9:55 pm 21:55 Partly Cloudy 68 20 63 17.2 84 84 SE 20 31 29.97 1015 10 16.0934 0 0
10:15 pm 22:15 Partly Cloudy 67 19.7 63 17.2 86 86 SSE 17 28 29.99 1016 10 16.0934 0 0
10:35 pm 22:35 Mostly Cloudy 67 19.7 63 17.3 86 86 SSE 20 31 29.98 1015 10 16.0934 0 0
10:55 pm 22:55 Cloudy 68 19.8 64 17.5 87 87 SSE 16 26 29.98 1015 10 16.0934 0 0
11:15 pm 23:15 Cloudy 68 20.1 64 17.6 86 86 S 15 24 29.98 1015 10 16.0934 0 0
11:35 pm 23:35 Cloudy 69 20.3 64 17.8 86 86 SSE 15 24 29.98 1015 10 16.0934 0 0
11:55 pm 23:55 Cloudy 69 20.7 64 18 85 85 S 17 28 29.97 1015 10 16.0934 0 0

Powered by AerisWeather